STARLINK F

Last updated on June 19, 2020, 12:02 a.m. UTC

1 45735U 20038F   20170.66667824  .01843331  18476-2  33737-2 0  9998
2 45735  53.0000 272.2772 0099917  69.7889  16.9492 15.92271419  2122

Satellite is not in orbit.